Location: Houhaj�rvi
(61.2667°N, 23.0167°E)
Time: 19:35:29
(UTC+00:00)

Cosmos 1943 Rocket - Pass Details

Date: 13 December 2019
Orbit: 812 x 844 km, 71.0° (Epoch: 17 January)

Event Time Altitude Azimuth Distance (km) Brightness Sun altitude
Rises 15:12:08 0° 314° (NW) 3,414 5.6 -12.2°
Reaches altitude 10° 15:14:37 10° 318° (NW) 2,474 4.8 -12.5°
Maximum altitude 15:20:17 65° 41° (NE) 927 2.2 -13.1°
Drops below altitude 10° 15:25:52 10° 123° (ESE) 2,447 4.3 -13.7°
Sets 15:28:19 0° 126° (SE) 3,374 5.0 -14.0°
